Regional Weather Roundup
Issued by NWS Kansas City/Pleasant Hill, MO

Home | Current Version | Previous Version | Graphics & Text | Print | Product List | Glossary Off
Versions: 1 2 3 4 5 6 7 8 9 10 11 12 13 14 15 16 17 18 19 20 21 22 23 24 25 26 27 28 29 30 31 32 33 34 35 36 37 38 39 40 41 42 43 44 45 46 47 48 49 50

000
ASUS43 KEAX 220111
RWREAX

WEATHER ROUNDUP FOR EASTERN KANSAS AND NORTHWEST MISSOURI
NATIONAL WEATHER SERVICE KANSAS CITY/PLEASANT HILL MO
800 PM CDT MON JUL 21 2014

KSZ040-057-103>105-MOZ028-029-037-043-220200-
...KANSAS CITY METROPOLITAN AREA...

CITY           SKY/WX    TMP DP  RH WIND       PRES   REMARKS
K.C. INTL      PTCLDY    84  75  74 S9        29.94S HX  92
K.C. DOWNTOWN  CLEAR     90  74  59 S14       29.93S HX  99
LEES SUMMIT    CLEAR     86  75  69 S8        29.97S HX  95
OLATHE - IXD   CLEAR     87  73  62 S12       29.97R HX  94
OLATHE - OJC   CLEAR     86  75  69 S8        29.96R HX  95
LAWRENCE       CLEAR     88  74  63 S6        29.93S HX  96

$$

MOZ001>008-011>017-020>025-030>033-038>040-044>046-053-054-220200-
...NORTHERN AND CENTRAL MISSOURI...

CITY           SKY/WX    TMP DP  RH WIND       PRES   REMARKS
ST. JOSEPH     CLEAR     87  73  62 S9        29.91R HX  94
MOSBY          CLEAR     88  75  66 SE7       29.94R HX  97
WHITEMAN AFB   CLEAR     84  71  63 S8        29.98S
CLINTON        CLEAR     86  75  70 S5        29.99S HX  95
SEDALIA        CLEAR     85  73  67 S7        30.00S HX  91
WARSAW         NOT AVBL
MARSHALL       CLEAR     86  77  74 S7        29.99S HAZE    HX  97
CHILLICOTHE      N/A     86  74  67 S8        29.95S HX  94
MOBERLY        CLEAR     82  68  61 SE3       30.00S
KIRKSVILLE     CLEAR     82  73  74 S8        29.99S

$$

MOZ041-047>049-056>058-063>065-088>090-097-220200-
...EASTERN AND SOUTHERN MISSOURI...

CITY           SKY/WX    TMP DP  RH WIND       PRES   REMARKS
ST. LOUIS INTL CLEAR     85  66  53 SE9       30.04S
SPIRIT OF STL  CLEAR     83  67  58 SE6       30.02S
COLUMBIA       CLEAR     82  70  66 SE7       30.01F
JEFFERSON CITY CLEAR     85  68  56 SE3       29.99F
MEXICO         CLEAR     81  73  78 SE6       30.02S
HANNIBAL       CLEAR     82  64  54 SE5       30.02S
ROLLA          CLEAR     79  67  66 S5        30.04S
LEBANON        CLEAR     81  66  61 S3        30.05F
OSAGE BEACH    CLEAR     84  66  54 SE6       30.01F
SPRINGFIELD    CLEAR     84  67  56 S3        30.03S
BRANSON        CLEAR     84  66  54 SE7       30.05S
NEVADA         CLEAR     82  75  78 SE5       29.99S
JOPLIN         CLEAR     86  71  60 S8        30.00R HX  91
WEST PLAINS    CLEAR     79  66  64 SE3       30.08S
MALDEN         CLEAR     82  66  57 CALM      30.06S

$$

IAZ060-094-KSZ022-034>040-054-083-096-NEZ052-066-093-220200-
...KANSAS...SOUTHEAST NEBRASKA AND IOWA...

CITY           SKY/WX    TMP DP  RH WIND       PRES   REMARKS
TOPEKA         PTCLDY    92  74  55 S13       29.92S HX 101
MANHATTAN      CLEAR     95  72  47 S14G23    29.90R HX 103
EMPORIA        CLEAR     87  73  62 S12G21    29.95S HX  94
CHANUTE        CLEAR     86  74  67 S9        29.97S HX  94
WICHITA        PTCLDY    89  72  56 S14       29.96R HX  96
OMAHA          CLOUDY    92  77  61 S17G24    29.82F HX 105
LINCOLN        CLOUDY    94  76  55 S15       29.83F HX 106
FALLS CITY     PTCLDY    89  76  65 S10       29.88R HX 100
LAMONI         CLEAR     85  76  74 S9        29.93R HX  94
DES MOINES     PTCLDY    88  76  67 S10       29.90R HX  99

$$




USA.gov is the U.S. government's official web portal to all federal, state and local government web resources and services.